Location: Newark
(54.2833°N, 0.8333°W)
Time: 15:16:01
(UTC+00:00)

N. Korean satellite - Visible Passes

Search period start: 15 December 2019 00:00
Search period end: 25 December 2019 00:00
Orbit: 455 x 507 km, 97.2° (Epoch: 14 December)

Date Brightness Start Highest point End Pass type
(mag) Time Alt. Az. Time Alt. Az. Time Alt. Az.
15 Dec 6.9 05:59:52 10° NNE 06:03:24 65° ESE 06:06:51 10° S visible
15 Dec 6.5 16:41:18 10° SSE 16:44:59 71° ENE 16:48:38 10° N visible
15 Dec 9.9 18:16:54 10° WSW 18:18:48 14° W 18:20:43 10° WNW visible
16 Dec 8.2 05:34:36 10° NNE 05:37:51 34° E 05:41:03 10° SSE visible
16 Dec 7.6 07:08:14 10° N 07:11:08 24° WNW 07:14:00 10° WSW visible
16 Dec 7.1 16:16:10 10° SE 16:19:37 39° ENE 16:23:01 10° N visible
16 Dec 9.2 17:50:09 10° SSW 17:53:08 23° W 17:56:06 10° NW visible
17 Dec 9.3 05:09:37 10° NE 05:12:13 19° E 05:14:47 10° SE visible
17 Dec 6.8 06:42:29 10° N 06:45:50 42° WNW 06:49:07 10° SW visible
17 Dec 8.1 17:24:03 10° S 17:27:33 40° W 17:31:00 10° NNW visible
18 Dec 10.0 04:45:31 10° ENE 04:46:30 11° E 04:47:28 10° ESE visible
18 Dec 6.3 06:16:55 10° NNE 06:20:27 80° WNW 06:23:53 10° SSW visible
18 Dec 6.8 16:58:22 10° S 17:02:02 76° WSW 17:05:40 10° NNW visible
19 Dec 7.3 05:51:31 10° NNE 05:54:57 52° E 05:58:20 10° S visible
19 Dec 8.0 07:25:39 10° NNW 07:28:02 17° WNW 07:30:23 10° WSW visible
19 Dec 6.6 16:33:01 10° SSE 16:36:36 58° ENE 16:40:10 10° N visible
19 Dec 9.8 18:08:01 10° SW 18:10:20 16° W 18:12:38 10° NW visible
20 Dec 8.6 05:26:19 10° NNE 05:29:23 28° E 05:32:24 10° SSE visible
20 Dec 7.3 06:59:43 10° N 07:02:46 28° WNW 07:05:47 10° SW visible
20 Dec 8.9 17:41:31 10° SSW 17:44:41 27° W 17:47:49 10° NW visible
21 Dec 9.5 05:01:29 10° NE 05:03:43 16° E 05:05:56 10° SE visible
21 Dec 6.6 06:34:02 10° N 06:37:26 51° WNW 06:40:47 10° SSW visible
21 Dec 7.6 17:15:34 10° S 17:19:07 49° W 17:22:38 10° NNW visible
22 Dec 6.4 06:08:30 10° NNE 06:12:01 83° ESE 06:15:27 10° SSW visible
22 Dec 6.5 16:50:00 10° SSE 16:53:37 88° ENE 16:57:13 10° NNW visible
22 Dec 10.1 18:26:39 10° W 18:27:34 11° W 18:28:29 10° WNW visible
23 Dec 7.7 05:43:09 10° NNE 05:46:29 42° E 05:49:46 10° S visible
23 Dec 7.8 07:17:03 10° NNW 07:19:40 20° WNW 07:22:15 10° WSW visible
23 Dec 6.8 16:24:44 10° SE 16:28:12 47° ENE 16:31:40 10° N visible
23 Dec 9.5 17:59:14 10° SW 18:01:51 19° W 18:04:27 10° NW visible
24 Dec 8.9 05:18:03 10° NE 05:20:53 23° E 05:23:41 10° SSE visible
24 Dec 7.1 06:51:13 10° N 06:54:23 34° WNW 06:57:30 10° SW visible
24 Dec 8.5 17:32:56 10° SSW 17:36:13 32° W 17:39:29 10° NNW visible
